Weather History for Bentonville, AR

Change the Weather History Date:

Sunday, December 22, 2013

  Actual Average Record
Temperature  
Mean Temperature 30 °F -  
Max Temperature 33 °F 44 °F 67 °F (1949)
Min Temperature 26 °F 22 °F -10 °F (1989)
Degree Days  
Heating Degree Days 36    
Moisture  
Dew Point 24 °F    
Average Humidity 80    
Maximum Humidity 93    
Minimum Humidity 74    
Precipitation  
Precipitation 0.00 in - - ()
Sea Level Pressure  
Sea Level Pressure 30.03 in    
Wind  
Wind Speed 10 mph (NW)    
Max Wind Speed 15 mph    
Max Gust Speed 17 mph    
Visibility 8 miles    
Events      
Averages and records for this station are not official NWS values.
T = Trace of Precipitation, MM = Missing Value Source: NWS Daily Summary

Daily Weather History Graph

Daily Weather History Graph

Search for Another Location

Airport:

Trip Planner

Search our weather history database for the weather conditions in past years. The results will help you decide how hot, cold, wet, or windy it might be!

Date:

Astronomy

Dec. 22, 2013 Rise Set
Actual Time 7:25 AM CST 5:06 PM CST
Civil Twilight 6:56 AM CST 5:34 PM CST
Nautical Twilight 6:24 AM CST 6:07 PM CST
Astronomical Twilight 5:52 AM CST 6:38 PM CST
Moon 10:11 PM CST (12/22) 10:29 AM CST (12/22)
Length of Visible Light 10h 38m
Length of Day
9h 40m
Waning Gibbous, 76% of the Moon is Illuminated
Dec 22
Waning Gibbous
Dec 25
Last Quarter
Jan 1
New
Jan 7
First Quarter
Jan 15
Full

Hourly Weather History & Observations

Time (CST) Temp. Windchill Dew Point Humidity Pressure Visibility Wind Dir Wind Speed Gust Speed Precip Events Conditions
12:15 AM 33.8 °F 25.3 °F 30.2 °F 87% 29.70 in 5.0 mi West 11.5 mph - N/A   Overcast
12:35 AM 33.8 °F 26.4 °F 30.2 °F 87% 29.70 in 6.0 mi West 9.2 mph - N/A   Overcast
12:55 AM 33.8 °F 25.3 °F 28.4 °F 81% 29.71 in 4.0 mi West 11.5 mph - N/A   Overcast
1:15 AM 33.8 °F 24.8 °F 28.4 °F 81% 29.72 in 5.0 mi West 12.7 mph - N/A   Overcast
1:35 AM 32.0 °F 22.5 °F 28.4 °F 87% 29.72 in 8.0 mi West 12.7 mph - N/A   Overcast
1:55 AM 32.0 °F 22.1 °F 28.4 °F 87% 29.75 in 10.0 mi West 13.8 mph - N/A   Overcast
2:15 AM 32.0 °F 23.6 °F 28.4 °F 87% 29.75 in 6.0 mi West 10.4 mph 16.1 mph N/A   Overcast
2:35 AM 32.0 °F 23.0 °F 28.4 °F 87% 29.78 in 4.0 mi WSW 11.5 mph - N/A   Overcast
2:55 AM 32.0 °F 24.2 °F 28.4 °F 87% 29.78 in 1.8 mi West 9.2 mph - N/A   Overcast
3:15 AM 32.0 °F 22.5 °F 28.4 °F 87% 29.79 in 3.0 mi WSW 12.7 mph 17.3 mph N/A   Overcast
3:35 AM 30.2 °F 19.8 °F 28.4 °F 93% 29.79 in 2.0 mi West 13.8 mph 17.3 mph N/A   Overcast
3:55 AM 30.2 °F 20.8 °F 28.4 °F 93% 29.81 in 1.5 mi WSW 11.5 mph - N/A   Overcast
4:15 AM 30.2 °F 22.6 °F 28.4 °F 93% 29.82 in 9.0 mi West 8.1 mph - N/A   Overcast
4:35 AM 30.2 °F 22.6 °F 26.6 °F 86% 29.83 in 5.0 mi WSW 8.1 mph - N/A   Overcast
4:55 AM 30.2 °F 21.3 °F 26.6 °F 86% 29.84 in 10.0 mi WSW 10.4 mph 16.1 mph N/A   Overcast
5:15 AM 30.2 °F 21.9 °F 26.6 °F 86% 29.83 in 8.0 mi West 9.2 mph - N/A   Overcast
5:35 AM 30.2 °F 22.6 °F 26.6 °F 86% 29.85 in 3.0 mi West 8.1 mph - N/A   Overcast
5:55 AM 30.2 °F 24.3 °F 26.6 °F 86% 29.86 in 10.0 mi West 5.8 mph - N/A   Overcast
6:15 AM 30.2 °F 23.4 °F 28.4 °F 93% 29.87 in 5.0 mi WNW 6.9 mph - N/A   Overcast
6:35 AM 30.2 °F 23.4 °F 26.6 °F 86% 29.89 in 10.0 mi WNW 6.9 mph - N/A   Overcast
6:55 AM 30.2 °F 22.6 °F 26.6 °F 86% 29.90 in 10.0 mi WNW 8.1 mph - N/A   Overcast
7:15 AM 30.2 °F 24.3 °F 26.6 °F 86% 29.91 in 10.0 mi WNW 5.8 mph - N/A   Overcast
7:35 AM 30.2 °F 25.4 °F 26.6 °F 86% 29.92 in 10.0 mi WNW 4.6 mph - N/A   Overcast
7:55 AM 30.2 °F 20.8 °F 24.8 °F 80% 29.93 in 5.0 mi NW 11.5 mph - N/A   Overcast
8:15 AM 30.2 °F 21.3 °F 24.8 °F 80% 29.94 in 10.0 mi NW 10.4 mph 17.3 mph N/A   Overcast
8:35 AM 30.2 °F 20.8 °F 24.8 °F 80% 29.95 in 10.0 mi NW 11.5 mph 16.1 mph N/A   Overcast
8:55 AM 30.2 °F 21.9 °F 24.8 °F 80% 29.96 in 10.0 mi NW 9.2 mph - N/A   Overcast
9:15 AM 30.2 °F 20.2 °F 24.8 °F 80% 29.98 in 10.0 mi NW 12.7 mph - N/A   Overcast
9:35 AM 30.2 °F 21.9 °F 24.8 °F 80% 29.98 in 10.0 mi NW 9.2 mph - N/A   Overcast
9:55 AM 30.2 °F 21.3 °F 24.8 °F 80% 29.99 in 10.0 mi NW 10.4 mph - N/A   Overcast
10:15 AM 28.4 °F 17.5 °F 24.8 °F 86% 30.01 in 8.0 mi NW 13.8 mph - N/A   Overcast
10:35 AM 28.4 °F 17.5 °F 23.0 °F 80% 30.02 in 9.0 mi NW 13.8 mph - N/A   Overcast
10:55 AM 28.4 °F 17.0 °F 23.0 °F 80% 30.03 in 9.0 mi NW 15.0 mph - N/A   Overcast
11:15 AM 28.4 °F 19.7 °F 21.2 °F 74% 30.04 in 9.0 mi NNW 9.2 mph - N/A   Overcast
11:35 AM 28.4 °F 19.7 °F 21.2 °F 74% 30.05 in 10.0 mi NW 9.2 mph - N/A   Overcast
11:55 AM 28.4 °F 19.1 °F 21.2 °F 74% 30.05 in 10.0 mi NNW 10.4 mph - N/A   Overcast
12:15 PM 28.4 °F 18.5 °F 21.2 °F 74% 30.05 in 8.0 mi NW 11.5 mph - N/A   Overcast
12:35 PM 28.4 °F 18.0 °F 21.2 °F 74% 30.05 in 10.0 mi North 12.7 mph 17.3 mph N/A   Overcast
12:55 PM 28.4 °F 19.7 °F 21.2 °F 74% 30.05 in 10.0 mi NNW 9.2 mph - N/A   Overcast
1:15 PM 28.4 °F 19.7 °F 21.2 °F 74% 30.06 in 9.0 mi NNW 9.2 mph - N/A   Overcast
1:35 PM 28.4 °F 19.7 °F 21.2 °F 74% 30.06 in 10.0 mi NNW 9.2 mph - N/A   Overcast
1:55 PM 28.4 °F 19.7 °F 23.0 °F 80% 30.07 in 10.0 mi NNW 9.2 mph - N/A   Overcast
2:15 PM 28.4 °F 19.1 °F 23.0 °F 80% 30.08 in 10.0 mi NW 10.4 mph - N/A   Overcast
2:35 PM 28.4 °F 21.2 °F 23.0 °F 80% 30.08 in 8.0 mi NNW 6.9 mph - N/A   Overcast
2:55 PM 28.4 °F 19.7 °F 21.2 °F 74% 30.09 in 10.0 mi NNW 9.2 mph - N/A   Overcast
3:15 PM 28.4 °F 20.4 °F 23.0 °F 80% 30.10 in 9.0 mi NNW 8.1 mph - N/A   Overcast
3:35 PM 28.4 °F 20.4 °F 21.2 °F 74% 30.11 in 8.0 mi NNW 8.1 mph - N/A   Overcast
3:55 PM 28.4 °F 20.4 °F 21.2 °F 74% 30.13 in 8.0 mi NW 8.1 mph - N/A   Overcast
4:15 PM 28.4 °F 19.1 °F 21.2 °F 74% 30.13 in 8.0 mi NW 10.4 mph - N/A   Overcast
4:35 PM 28.4 °F 20.4 °F 21.2 °F 74% 30.14 in 9.0 mi NW 8.1 mph - N/A   Overcast
4:55 PM 28.4 °F 19.1 °F 21.2 °F 74% 30.16 in 7.0 mi NW 10.4 mph - N/A   Overcast
5:15 PM 28.4 °F 19.1 °F 21.2 °F 74% 30.17 in 8.0 mi NNW 10.4 mph - N/A   Overcast
5:35 PM 28.4 °F 19.7 °F 21.2 °F 74% 30.18 in 10.0 mi NW 9.2 mph - N/A   Overcast
5:55 PM 28.4 °F 20.4 °F 21.2 °F 74% 30.19 in 10.0 mi NW 8.1 mph - N/A   Overcast
6:15 PM 28.4 °F 20.4 °F 21.2 °F 74% 30.20 in 10.0 mi NW 8.1 mph - N/A   Overcast
6:35 PM 28.4 °F 22.2 °F 21.2 °F 74% 30.21 in 10.0 mi NNW 5.8 mph - N/A   Overcast
6:55 PM 28.4 °F 20.4 °F 21.2 °F 74% 30.22 in 10.0 mi NW 8.1 mph - N/A   Overcast
7:15 PM 28.4 °F 21.2 °F 21.2 °F 74% 30.22 in 10.0 mi NNW 6.9 mph - N/A   Overcast
7:35 PM 28.4 °F 23.3 °F 21.2 °F 74% 30.24 in 10.0 mi NNW 4.6 mph - N/A   Overcast
7:55 PM 28.4 °F 21.2 °F 21.2 °F 74% 30.24 in 10.0 mi NNW 6.9 mph - N/A   Overcast
8:15 PM 28.4 °F 22.2 °F 21.2 °F 74% 30.25 in 10.0 mi NNW 5.8 mph - N/A   Overcast
8:35 PM 28.4 °F 22.2 °F 21.2 °F 74% 30.25 in 10.0 mi NNW 5.8 mph - N/A   Overcast
8:55 PM 28.4 °F 21.2 °F 21.2 °F 74% 30.26 in 10.0 mi NNW 6.9 mph - N/A   Overcast
9:15 PM 28.4 °F 19.1 °F 21.2 °F 74% 30.27 in 10.0 mi NNW 10.4 mph - N/A   Overcast
9:35 PM 26.6 °F 16.8 °F 21.2 °F 80% 30.28 in 10.0 mi NNW 10.4 mph - N/A   Overcast
9:55 PM 26.6 °F 17.5 °F 21.2 °F 80% 30.28 in 10.0 mi NW 9.2 mph - N/A   Overcast
10:15 PM 26.6 °F 18.2 °F 19.4 °F 74% 30.29 in 10.0 mi NW 8.1 mph - N/A   Overcast
10:35 PM 26.6 °F 19.1 °F 21.2 °F 80% 30.30 in 10.0 mi NW 6.9 mph - N/A   Overcast
10:55 PM 26.6 °F 19.1 °F 19.4 °F 74% 30.31 in 10.0 mi NW 6.9 mph - N/A   Overcast
11:15 PM 26.6 °F 18.2 °F 19.4 °F 74% 30.30 in 10.0 mi North 8.1 mph - N/A   Overcast
11:35 PM 26.6 °F 18.2 °F 19.4 °F 74% 30.31 in 10.0 mi NNW 8.1 mph - N/A   Overcast
11:55 PM 26.6 °F 18.2 °F 19.4 °F 74% 30.31 in 10.0 mi North 8.1 mph - N/A   Overcast